Flag for Germany

Past Weather in Tönisvorst, North Rhine-Westphalia, Germany — Yesterday and Last 2 Weeks

Now
77 °F

Passing clouds.


Feels Like: 79 °F
Forecast: 80 / 65 °F
Wind: 7 mph from West

Location: Monchengladbach Airport
Current Time: Aug 14, 2020 at 11:15:27 am
Latest Report: Aug 14, 2020 at 10:20 am
Visibility: N/A
Pressure29.92 "Hg
Humidity: 65%
Dew Point: 64 °F
Location of TönisvorstLocation

Past Weather in Tönisvorst — Graph

°F

Tönisvorst Temperature Yesterday

Maximum temperature yesterday: 90 °F (at 3:20 pm)
Minimum temperature yesterday: 68 °F (at 5:20 am)
Average temperature yesterday: 75 °F

High & Low Weather Summary for the Past Weeks

 TemperatureHumidityPressure
High97 °F (Aug 8, 3:50 pm)100% (Aug 3, 3:50 am)30.15 "Hg (Aug 3, 3:50 am)
Low48 °F (Aug 3, 5:20 am)23% (Jul 31, 5:50 pm)29.83 "Hg (Aug 13, 4:20 pm)
Average74 °F60%29.99 "Hg
* Reported Jul 30 9:20 am — Aug 14 9:50 am, Tönisvorst. Weather by CustomWeather, © 2020

Note: Actual official high and low records may vary slightly from our data, if they occured in-between our weather recording intervals... More about our weather records

Tönisvorst Weather History for the Previous 24 Hours

Scroll right to see more
 ConditionsComfort  
Time TempWeatherWind HumidityBarometerVisibility
9:50 am
Fri, Aug 14
75 °FPassing clouds.6 mph65%29.92 "HgN/A
9:20 am73 °FPassing clouds.6 mph69%29.89 "HgN/A
8:50 am72 °FPassing clouds.6 mph73%29.89 "HgN/A
8:20 am70 °FSunny.2 mph83%29.89 "Hg10 mi
7:50 am68 °FPartly sunny.2 mph94%29.89 "HgN/A
7:20 am66 °FOvercast.No wind100%29.89 "HgN/A
6:50 am66 °FMore clouds than sun.1 mph94%29.89 "HgN/A
6:20 am64 °FPartly sunny.1 mph100%29.89 "HgN/A
5:50 am64 °FPartly sunny.1 mph100%29.89 "Hg5 mi
5:20 am64 °FPassing clouds.1 mph100%29.89 "Hg5 mi
4:50 am64 °FSunny.1 mph94%29.89 "Hg4 mi
4:20 am66 °FSunny.1 mph100%29.89 "Hg4 mi
3:20 am66 °FSunny.No wind100%29.89 "Hg2 mi
2:50 am66 °FSunny.No wind100%29.89 "Hg4 mi
2:20 am66 °FSunny.2 mph100%29.89 "HgN/A
1:50 am68 °FPassing clouds.2 mph94%29.89 "HgN/A
1:20 am68 °FScattered clouds.3 mph94%29.89 "HgN/A
12:50 am70 °FPartly sunny.2 mph88%29.89 "HgN/A
12:20 am70 °FPartly sunny.3 mph88%29.89 "HgN/A
11:50 pm
Thu, Aug 13
70 °FOvercast.1 mph94%29.89 "HgN/A
11:20 pm70 °FPartly sunny.No wind88%29.89 "HgN/A
10:50 pm70 °FBroken clouds.2 mph88%29.89 "HgN/A
10:20 pm70 °FPassing clouds.1 mph88%29.89 "HgN/A
9:20 pm72 °FClear.1 mph83%29.86 "HgN/A
8:20 pm77 °FClear.13 mph69%29.86 "Hg10 mi
7:50 pm75 °FClear.3 mph83%29.86 "Hg10 mi
7:20 pm75 °FClear.1 mph89%29.83 "Hg10 mi
6:50 pm75 °FSprinkles. Passing clouds.7 mph83%29.83 "HgN/A
6:20 pm77 °FSprinkles. Passing clouds.8 mph69%29.86 "HgN/A
5:50 pm79 °FThunderstorms. Passing clouds.13 mph65%29.83 "HgN/A
5:20 pm88 °FScattered showers. Passing clouds.3 mph49%29.83 "HgN/A
4:50 pm90 °FClear.3 mph46%29.83 "Hg10 mi
4:20 pm90 °FPassing clouds.6 mph43%29.83 "HgN/A
3:50 pm90 °FClear.5 mph43%29.86 "Hg10 mi
3:20 pm90 °FPassing clouds.7 mph43%29.86 "HgN/A
2:20 pm88 °FPassing clouds.8 mph46%29.86 "HgN/A
1:50 pm88 °FPassing clouds.7 mph49%29.86 "HgN/A
1:20 pm86 °FPassing clouds.8 mph52%29.86 "HgN/A
12:50 pm84 °FPassing clouds.5 mph55%29.86 "HgN/A
12:20 pm82 °FPassing clouds.5 mph62%29.86 "HgN/A
11:50 am81 °FSunny.2 mph62%29.89 "Hg10 mi
11:20 am79 °FPassing clouds.5 mph65%29.89 "HgN/A
Weather by CustomWeather, © 2020

See weather overview